Temp
62 62 62 61 61 61 61 62 63 64 64 64 64 64 64 64 66 89 96 94 95 83 84 107 106 102 102 100 100 98 88 81 82 82 83 88 86 90 91 88 89 89 91 94 93
62 62 62 61 61 61 61 61 62 63 63 63 64 64 64 64 87 96 90 83 83 83 104 102 99 100 104 97 100 96 86 84 91 90 88 88 88 88 86 86 85 87 89 91 92
62 62 62 61 61 61 61 61 60 62 63 63 63 64 64 70 90 97 84 83 83 87 105 104 102 100 96 101 97 94 85 91 91 94 93 89 88 91 88 86 90 86 86 87 90
62 62 61 61 61 61 61 60 60 61 62 63 64 64 65 87 81 101 85 83 83 101 105 102 102 96 95 92 97 89 92 93 93 93 91 89 92 89 90 89 95 95 91 90 89
61 61 61 61 61 60 60 60 60 60 62 63 64 65 82 89 92 102 85 89 101 104 101 100 98 96 92 94 95 91 93 95 94 94 94 93 89 89 90 94 96 95 91 91 91
61 61 61 60 60 60 60 60 59 60 62 63 65 64 86 85 103 103 102 102 104 104 102 102 98 98 95 94 93 94 93 96 96 94 95 90 92 89 93 96 94 92 91 93 93
60 60 60 60 60 60 60 59 59 60 62 64 66 78 86 92 103 104 104 104 105 104 100 103 103 99 98 93 96 94 89 94 94 93 92 93 87 87 96 95 92 92 93 93 94
60 60 60 60 60 60 59 59 59 61 63 65 67 84 87 101 105 102 106 105 105 105 103 104 104 100 97 98 94 90 89 83 91 91 91 91 82 94 96 93 92 93 93 92 93
59 60 60 60 59 59 58 58 60 63 65 67 81 87 88 95 99 104 105 100 103 104 104 102 102 97 97 92 89 88 82 81 85 92 91 89 85 94 94 94 93 93 94 93 93
59 59 59 59 58 58 57 58 64 65 73 82 86 83 93 92 98 100 105 103 100 100 98 98 99 94 95 91 79 78 81 83 81 90 91 88 88 95 98 94 93 95 95 94 94
59 58 58 58 58 57 64 81 82 81 84 87 88 87 91 98 99 99 103 101 100 98 89 92 89 85 87 88 87 86 84 82 87 90 86 87 88 93 97 96 94 94 94 96 96
58 58 58 58 58 57 70 85 87 87 83 90 87 88 93 95 90 96 103 93 92 87 90 88 84 89 89 88 87 86 84 83 87 88 87 88 87 91 92 91 92 94 94 95 96
58 58 57 57 57 64 83 86 92 91 86 85 90 90 93 94 92 94 99 95 91 88 88 85 87 89 87 87 85 87 84 83 82 88 91 86 84 86 90 91 94 94 96 98 96
58 57 57 56 60 85 84 90 91 89 81 80 86 91 92 94 88 99 102 96 90 87 87 87 92 86 87 86 88 83 89 86 84 83 77 87 76 83 87 89 91 96 94 97 98
57 57 56 52 80 83 87 93 91 88 67 85 86 96 95 90 92 91 99 95 87 87 87 83 85 85 84 86 88 85 88 86 85 83 82 82 80 84 89 87 89 92 93 97 100
57 56 56 64 76 87 90 90 89 75 64 79 88 86 86 90 90 92 93 97 95 87 88 88 92 89 90 90 90 91 87 86 86 84 74 80 80 80 83 82 87 91 93 94 97
55 53 57 77 87 90 91 88 76 72 84 77 82 86 87 85 86 88 86 86 83 77 78 86 87 92 91 87 91 89 86 76 71 73 74 83 79 82 87 88 88 89 91 93 95
53 53 60 77 87 85 87 82 68 77 80 87 86 86 82 86 86 86 85 83 87 86 85 78 75 87 91 88 86 86 87 78 62 70 75 82 74 81 89 92 93 92 93 93 94
53 73 81 87 83 85 85 75 77 80 83 83 85 80 80 84 85 84 84 85 88 89 80 79 77 88 88 90 90 85 81 90 80 80 74 80 81 90 90 91 91 91 92 91 93
77 84 87 86 86 86 82 65 80 84 85 85 79 84 78 82 81 83 83 88 86 91 94 85 76 87 88 90 89 88 91 80 82 65 63 75 74 79 82 84 88 88 89 90 91
80 84 85 87 88 84 77 80 80 87 86 83 82 81 84 83 84 83 84 86 88 88 92 90 84 82 86 84 83 84 84 84 84 78 68 67 75 85 82 84 84 88 88 88 90
86 80 86 88 80 86 80 81 64 85 88 86 86 86 85 84 83 83 82 85 85 89 83 90 87 79 81 86 87 87 84 84 75 71 77 73 74 86 85 86 85 87 87 88 87
86 82 88 89 77 78 82 81 83 84 85 85 85 87 87 83 77 81 82 84 85 87 84 87 83 74 75 83 86 82 84 86 85 84 72 69 74 84 86 86 88 86 88 87 85
82 77 82 85 86 82 79 79 80 85 84 85 85 88 86 82 84 79 81 83 85 86 70 80 86 80 74 75 83 77 79 82 84 75 76 77 77 82 84 82 84 85 87 85 84
83 82 81 76 80 82 81 79 79 79 85 85 83 85 84 79 81 80 83 84 85 72 83 87 78 80 81 80 80 80 79 80 77 79 73 76 75 80 82 79 79 81 82 82 81
78 79 82 84 78 80 69 79 78 80 81 83 82 84 85 81 81 78 82 83 81 85 84 85 77 78 76 80 79 76 80 80 79 79 78 77 75 82 81 79 77 77 79 79 78
79 80 76 65 80 80 81 79 79 81 82 84 85 85 82 81 85 87 88 86 85 81 79 80 79 74 70 77 75 69 77 78 79 81 78 72 77 78 76 75 76 76 76 76 78
MSLP
1016.58 1016.40 1016.14 1015.96 1015.73 1015.49 1015.21 1014.93 1014.63 1014.30 1014.03 1013.69 1013.34 1012.96 1012.47 1011.86 1010.54 1009.82 1007.95 1007.48 1007.12 1006.98 1006.92 1005.28 1004.47 1004.56 1004.22 1003.60 1003.69 1003.67 1002.44 1002.87 1003.52 1003.78 1004.53 1005.17 1005.09 1005.69 1006.09 1006.03 1006.61 1007.24 1007.26 1007.90 1009.86
1016.41 1016.20 1016.02 1015.87 1015.65 1015.41 1015.14 1014.91 1014.61 1014.27 1014.03 1013.67 1013.32 1012.84 1012.35 1011.95 1010.14 1007.93 1007.17 1007.16 1007.10 1007.02 1005.84 1004.93 1004.24 1004.02 1003.13 1003.27 1003.34 1002.95 1002.73 1003.21 1003.68 1003.97 1004.19 1004.79 1005.03 1005.38 1005.82 1005.93 1006.49 1007.22 1008.41 1009.02 1009.91
1016.27 1016.01 1015.82 1015.67 1015.54 1015.32 1015.06 1014.85 1014.60 1014.23 1013.96 1013.64 1013.22 1012.74 1012.38 1011.89 1009.29 1006.65 1007.12 1007.16 1007.15 1006.95 1005.78 1005.15 1004.52 1003.78 1002.86 1002.96 1003.00 1003.12 1003.08 1003.54 1003.66 1003.77 1004.07 1004.32 1004.65 1005.24 1005.29 1005.13 1005.57 1006.78 1008.23 1009.25 1009.83
1016.10 1015.87 1015.67 1015.45 1015.28 1015.15 1014.97 1014.74 1014.51 1014.21 1013.91 1013.59 1013.19 1012.65 1012.11 1010.82 1007.84 1006.67 1007.24 1007.36 1007.32 1006.55 1005.57 1004.69 1003.70 1003.23 1002.73 1002.58 1003.17 1002.82 1003.37 1003.54 1003.67 1003.92 1004.01 1004.01 1004.33 1004.66 1004.96 1005.47 1005.82 1006.38 1007.94 1008.79 1009.43
1015.92 1015.65 1015.45 1015.27 1015.08 1014.93 1014.78 1014.59 1014.41 1014.14 1013.85 1013.53 1013.08 1012.54 1011.35 1009.20 1006.81 1006.81 1007.32 1007.08 1006.66 1005.97 1005.18 1004.53 1003.84 1003.45 1002.77 1002.99 1003.09 1003.01 1003.28 1003.41 1003.64 1003.71 1003.70 1003.98 1004.24 1004.41 1004.64 1005.22 1005.89 1006.65 1007.79 1008.38 1008.87
1015.76 1015.46 1015.22 1015.06 1014.91 1014.75 1014.59 1014.45 1014.27 1014.02 1013.69 1013.36 1012.92 1012.42 1010.74 1007.82 1006.66 1006.84 1006.83 1006.56 1005.95 1005.48 1005.06 1004.55 1004.40 1004.28 1003.46 1003.25 1003.17 1003.62 1003.48 1003.02 1003.07 1003.30 1003.50 1003.80 1003.61 1004.50 1004.23 1004.88 1005.71 1006.53 1007.25 1007.84 1008.34
1015.58 1015.29 1015.03 1014.84 1014.69 1014.56 1014.38 1014.25 1014.10 1013.80 1013.49 1013.13 1012.77 1011.98 1009.57 1006.73 1006.77 1006.74 1006.57 1005.97 1005.87 1005.50 1004.82 1004.91 1004.71 1004.14 1003.70 1003.21 1003.92 1003.68 1003.19 1002.72 1002.78 1003.21 1003.31 1003.63 1003.13 1003.43 1003.70 1004.67 1005.30 1005.89 1006.66 1007.34 1007.98
1015.38 1015.07 1014.80 1014.65 1014.51 1014.38 1014.21 1014.04 1013.83 1013.53 1013.17 1012.84 1012.56 1011.25 1007.82 1006.75 1006.76 1006.59 1006.04 1005.56 1005.78 1005.67 1005.35 1005.16 1004.92 1004.25 1003.72 1003.82 1003.56 1003.24 1003.22 1002.58 1002.99 1003.30 1003.50 1003.60 1002.44 1002.35 1003.42 1004.19 1004.61 1005.38 1005.98 1006.87 1007.57
1015.21 1014.89 1014.60 1014.45 1014.34 1014.19 1014.02 1013.81 1013.46 1013.15 1012.83 1012.56 1011.77 1009.99 1006.56 1006.60 1006.20 1005.75 1005.84 1005.27 1005.33 1005.39 1005.37 1005.35 1004.66 1004.03 1003.64 1002.93 1002.51 1002.96 1002.38 1002.77 1002.74 1003.23 1003.14 1003.26 1002.38 1002.41 1003.23 1003.61 1003.91 1004.75 1005.37 1006.15 1007.11
1015.07 1014.70 1014.46 1014.28 1014.16 1014.03 1013.78 1013.58 1012.99 1012.84 1012.45 1011.65 1010.78 1009.36 1006.49 1005.56 1005.78 1005.85 1005.78 1005.65 1005.00 1004.97 1004.71 1004.58 1004.02 1003.27 1003.09 1002.48 1002.16 1002.97 1002.47 1002.76 1002.84 1002.83 1002.91 1002.56 1002.27 1001.96 1001.95 1002.83 1003.33 1003.91 1004.58 1005.44 1006.18
1014.91 1014.55 1014.31 1014.14 1014.01 1013.81 1012.94 1012.44 1012.36 1011.40 1010.34 1008.20 1007.79 1006.91 1006.22 1006.03 1006.05 1005.60 1005.41 1005.15 1004.89 1004.53 1004.16 1004.62 1003.79 1002.83 1003.35 1003.83 1003.74 1003.48 1003.04 1002.75 1002.65 1003.08 1003.09 1002.28 1002.09 1001.69 1001.55 1001.92 1002.51 1003.26 1003.94 1004.42 1005.33
1014.77 1014.38 1014.14 1013.98 1013.85 1013.66 1012.98 1010.19 1009.10 1009.12 1007.93 1007.76 1007.68 1007.18 1006.61 1006.44 1005.29 1005.09 1005.25 1004.77 1004.51 1004.07 1004.53 1004.63 1003.59 1003.86 1004.33 1004.18 1003.75 1003.35 1003.00 1002.60 1002.77 1002.98 1003.03 1002.09 1001.74 1001.68 1001.81 1002.10 1002.42 1002.58 1003.24 1003.82 1004.72
1014.61 1014.23 1014.03 1013.92 1013.68 1013.23 1011.03 1009.52 1009.11 1008.80 1006.95 1006.95 1006.67 1006.15 1005.71 1006.03 1004.59 1004.55 1004.90 1004.48 1004.15 1003.87 1004.06 1003.69 1003.51 1004.44 1004.31 1003.71 1003.36 1002.48 1002.75 1002.79 1002.92 1002.71 1002.18 1002.17 1001.34 1001.46 1002.03 1002.26 1002.08 1002.49 1002.84 1003.32 1004.15
1014.45 1014.13 1013.91 1013.73 1013.86 1011.04 1009.90 1009.22 1009.27 1009.06 1006.40 1006.07 1005.65 1005.31 1005.72 1005.29 1004.61 1004.50 1004.51 1004.29 1004.26 1003.86 1004.14 1004.01 1003.91 1004.46 1003.91 1003.40 1003.38 1002.50 1003.07 1003.23 1002.95 1002.43 1001.45 1002.05 1000.54 1001.40 1001.82 1001.91 1002.14 1002.23 1002.59 1002.86 1003.60
1014.23 1013.96 1013.72 1013.84 1011.58 1010.05 1009.27 1009.21 1008.99 1008.64 1004.89 1005.07 1004.97 1005.47 1004.99 1004.51 1004.29 1004.83 1005.00 1004.62 1003.85 1004.20 1004.67 1003.82 1004.05 1004.11 1003.50 1003.05 1003.45 1002.87 1003.43 1003.38 1003.08 1002.46 1001.81 1001.47 1000.66 1001.00 1001.50 1001.58 1002.29 1002.57 1002.76 1002.80 1002.91
1013.83 1013.59 1013.57 1012.93 1011.63 1009.50 1009.38 1009.18 1008.63 1006.49 1004.12 1004.23 1004.28 1004.44 1004.33 1004.01 1004.00 1004.51 1004.67 1004.73 1004.58 1004.50 1004.56 1003.80 1004.43 1004.32 1003.35 1003.44 1003.44 1003.48 1003.25 1002.96 1002.76 1002.24 1001.12 1001.68 1001.35 1000.49 1001.55 1002.60 1002.60 1002.72 1002.79 1003.00 1002.92
1013.29 1013.02 1013.15 1011.33 1009.30 1009.55 1009.23 1008.27 1006.13 1003.68 1003.70 1003.63 1003.32 1003.57 1003.30 1003.48 1003.68 1003.92 1004.10 1004.11 1003.77 1003.89 1003.39 1003.39 1003.45 1003.38 1003.71 1003.10 1003.07 1003.14 1002.04 1001.16 1001.34 1001.18 1000.64 1001.79 1001.62 1001.12 1002.11 1002.75 1003.05 1003.03 1003.01 1003.26 1003.36
1013.08 1012.77 1012.07 1010.74 1010.10 1009.78 1008.78 1006.63 1004.19 1003.24 1002.46 1002.67 1002.55 1002.90 1002.82 1003.00 1003.16 1003.49 1003.49 1003.28 1003.84 1003.40 1002.47 1002.34 1002.39 1002.87 1003.01 1002.78 1001.96 1002.08 1001.46 1001.06 1001.30 1000.99 1001.03 1001.88 1001.21 1001.50 1002.53 1002.94 1003.15 1003.29 1003.45 1003.82 1004.02
1012.89 1011.58 1010.32 1009.59 1010.11 1009.73 1007.46 1004.79 1003.12 1002.69 1002.72 1002.25 1002.49 1002.33 1002.39 1002.89 1002.79 1003.08 1003.02 1002.69 1002.70 1003.27 1002.46 1002.21 1002.23 1003.19 1003.23 1002.94 1002.86 1002.07 1001.99 1001.95 1001.53 1001.98 1001.90 1001.47 1001.86 1001.83 1002.55 1002.84 1003.42 1003.62 1003.78 1004.35 1004.76
1011.15 1009.63 1008.88 1009.45 1009.63 1008.80 1006.28 1004.85 1003.65 1003.56 1003.08 1002.55 1001.37 1001.52 1001.55 1002.21 1002.48 1002.56 1002.62 1002.63 1002.75 1003.06 1003.05 1002.63 1002.32 1002.76 1003.06 1003.27 1003.16 1002.55 1002.36 1001.94 1001.65 1001.70 1001.85 1001.57 1002.01 1001.95 1002.86 1003.24 1003.82 1004.21 1004.64 1005.03 1005.63
1010.42 1008.03 1009.13 1009.25 1009.14 1007.31 1005.02 1004.10 1004.01 1003.52 1003.38 1002.41 1001.61 1001.45 1001.12 1001.62 1001.97 1001.99 1002.12 1003.14 1003.29 1003.27 1003.34 1002.77 1002.71 1002.69 1003.07 1002.60 1002.11 1002.73 1002.21 1002.53 1002.65 1002.82 1002.42 1002.09 1002.01 1003.36 1003.79 1004.21 1004.72 1004.77 1005.48 1006.00 1006.30
1009.23 1007.30 1008.85 1008.96 1007.42 1006.10 1004.70 1004.45 1004.61 1003.37 1003.18 1002.52 1002.23 1001.40 1001.43 1001.84 1001.99 1002.09 1002.32 1002.97 1004.15 1003.78 1003.46 1003.41 1002.49 1002.02 1002.21 1003.26 1003.65 1003.17 1002.55 1002.78 1002.34 1002.49 1002.69 1003.59 1003.24 1004.19 1004.57 1005.08 1005.61 1005.70 1006.05 1006.74 1007.24
1008.45 1007.93 1008.50 1007.97 1005.78 1005.14 1004.90 1004.43 1004.18 1003.33 1002.97 1002.59 1002.08 1002.06 1002.11 1002.12 1002.51 1002.75 1003.21 1004.35 1004.43 1004.18 1003.87 1003.88 1002.96 1002.19 1002.71 1003.26 1003.46 1003.15 1003.12 1003.19 1003.13 1003.08 1003.22 1003.29 1003.55 1004.98 1005.20 1005.50 1005.74 1006.27 1006.50 1007.11 1007.69
1008.78 1007.02 1007.49 1007.01 1006.11 1004.83 1004.43 1003.99 1003.62 1003.76 1003.32 1003.14 1002.57 1002.38 1002.30 1002.45 1002.77 1003.11 1003.48 1004.37 1004.79 1004.70 1005.15 1004.68 1002.74 1002.32 1001.89 1002.40 1002.61 1003.09 1003.55 1003.77 1003.37 1002.98 1002.67 1002.90 1003.63 1004.29 1005.06 1006.01 1006.75 1007.00 1007.21 1007.66 1008.12
1008.74 1006.54 1006.51 1005.67 1005.37 1004.93 1004.92 1004.50 1003.65 1003.32 1003.45 1003.31 1002.85 1002.35 1002.16 1002.44 1002.69 1003.05 1003.62 1004.21 1004.80 1005.33 1005.09 1004.30 1003.31 1003.54 1003.20 1003.64 1003.59 1003.57 1003.63 1003.78 1003.93 1003.80 1003.79 1003.83 1004.43 1005.15 1006.00 1007.25 1007.81 1008.09 1008.20 1008.55 1008.88
1008.94 1007.58 1007.11 1006.01 1005.64 1005.13 1004.87 1004.08 1003.87 1003.86 1003.66 1003.05 1002.72 1003.11 1003.17 1003.03 1003.35 1003.36 1003.78 1004.18 1004.36 1004.86 1004.80 1004.58 1004.24 1004.43 1003.93 1003.96 1004.35 1004.12 1004.08 1004.02 1004.13 1004.29 1004.58 1005.05 1005.22 1006.13 1007.43 1008.21 1008.46 1008.75 1008.81 1009.14 1009.60
1010.30 1009.47 1008.16 1006.66 1005.48 1004.89 1004.21 1004.32 1004.20 1004.28 1004.47 1004.04 1003.62 1003.50 1003.99 1004.84 1004.80 1004.82 1004.82 1005.00 1005.28 1005.33 1005.12 1005.14 1004.59 1004.79 1004.06 1004.45 1004.86 1004.65 1004.18 1004.27 1004.39 1004.65 1005.27 1005.41 1006.06 1007.24 1008.07 1008.67 1009.07 1009.38 1009.62 1009.74 1009.98
Wind_Speed
11 11 11 11 11 12 13 14 14 14 14 15 15 14 15 17 20 7 8 6 5 1 7 11 2 3 3 2 3 4 4 7 9 10 8 4 1 2 2 2 2 2 4 13 21
11 11 11 11 11 12 12 13 14 14 14 15 15 15 15 15 9 10 7 9 5 6 8 9 10 3 2 2 2 5 9 11 6 5 8 3 2 2 3 2 3 7 10 19 22
11 11 11 11 11 11 12 13 14 15 14 15 15 15 14 13 9 3 9 8 5 8 6 7 6 4 1 1 3 5 8 6 5 4 2 1 4 4 5 5 3 9 14 19 21
12 11 11 11 11 11 11 12 13 14 14 14 15 16 16 7 5 5 7 7 6 9 6 5 3 3 2 1 3 4 5 5 4 1 2 3 2 2 2 6 6 7 17 20 20
12 11 11 11 11 11 11 12 12 14 14 14 14 14 9 8 2 4 2 6 7 4 3 6 7 4 1 2 1 4 9 4 2 5 6 3 4 5 3 6 7 13 16 19 18
12 11 10 10 10 10 11 11 12 13 14 13 13 16 7 10 4 4 5 3 5 4 0 4 6 6 2 3 5 7 9 11 3 6 6 7 7 2 4 9 12 15 16 16 18
12 11 10 10 10 10 10 11 12 13 13 12 11 7 7 1 2 4 7 3 3 3 2 3 5 7 3 4 5 6 9 6 4 3 7 4 12 7 6 11 13 14 14 14 16
12 11 10 10 9 9 10 11 12 13 12 11 7 7 6 4 4 9 6 5 2 2 2 2 3 3 4 1 3 3 5 6 8 3 2 7 5 3 7 10 12 13 14 14 16
13 11 10 9 8 9 10 12 13 12 8 8 8 6 5 4 9 2 5 3 2 5 4 1 4 4 6 7 9 2 3 4 2 3 3 5 10 7 1 8 9 12 14 14 14
13 11 10 8 7 8 10 9 3 8 6 6 5 7 6 4 1 1 3 5 5 8 7 5 5 7 6 8 6 5 4 3 4 5 6 6 10 10 8 9 8 10 12 14 16
14 11 9 7 6 7 10 6 7 7 8 4 2 4 4 4 3 8 5 8 7 10 13 2 10 8 8 5 5 5 7 8 5 5 7 9 10 12 9 8 7 8 12 14 15
13 11 8 6 5 6 7 6 5 7 6 11 6 7 7 5 6 10 7 8 9 14 6 10 12 8 1 4 4 5 9 8 9 1 7 11 13 9 5 5 4 6 11 12 14
13 10 7 4 4 5 7 4 0 5 6 9 6 6 2 8 7 14 13 5 13 12 12 16 5 2 5 5 7 8 8 8 9 10 11 9 7 1 6 7 5 3 7 9 14
13 10 7 4 4 4 6 4 5 5 8 10 9 6 7 6 7 5 10 7 7 11 6 10 3 7 9 10 6 15 6 6 9 10 7 5 5 8 5 6 13 10 4 5 11
13 10 6 7 4 6 6 2 4 7 6 11 8 5 4 6 12 10 4 7 8 9 8 7 8 11 10 7 3 7 3 8 9 11 7 4 10 10 3 5 10 9 6 3 5
13 10 4 6 5 4 4 4 6 9 5 9 9 11 12 7 6 9 10 6 4 6 9 12 2 7 9 2 5 5 11 9 8 6 9 7 9 11 7 7 9 8 7 6 2
13 6 9 3 3 1 3 6 8 6 6 9 11 11 14 10 9 12 13 13 10 11 14 16 15 8 8 11 7 10 15 6 7 7 3 6 7 10 6 7 8 9 8 6 4
9 5 9 6 2 5 7 7 6 4 3 6 8 9 12 11 8 9 12 12 7 7 3 10 12 10 7 12 8 11 11 4 3 2 4 6 4 8 5 5 6 5 6 7 8
3 5 4 4 8 6 8 8 3 3 2 8 12 13 8 11 4 9 11 12 9 13 5 7 5 6 1 4 9 9 11 10 10 7 8 3 3 11 3 4 6 7 6 9 10
4 5 5 2 7 7 8 1 2 3 2 6 8 9 11 17 10 11 10 6 6 9 12 2 5 4 7 3 4 7 5 7 4 4 7 6 6 6 7 4 5 8 10 8 12
6 5 5 7 6 7 6 1 1 0 3 4 4 6 7 13 12 10 9 7 3 5 10 8 7 10 6 6 1 7 9 4 8 6 9 10 5 6 4 3 5 5 9 7 8
4 4 6 4 7 2 6 2 2 2 2 3 3 1 9 8 10 8 8 3 2 3 6 11 8 8 2 6 1 6 8 8 7 8 4 8 10 6 4 2 5 5 5 9 4
1 4 5 5 6 7 4 5 4 4 1 2 4 3 4 6 4 3 4 3 2 7 3 6 9 7 8 10 10 8 5 8 9 8 11 8 5 4 3 5 6 8 7 6 5
4 5 5 6 3 7 5 5 6 2 3 1 3 5 9 8 2 7 8 4 3 2 2 5 9 10 10 8 6 5 7 9 12 11 12 10 11 6 7 4 10 10 8 5 5
2 2 3 8 9 7 3 1 6 6 3 3 4 1 3 5 6 5 3 8 6 6 3 7 10 4 3 6 6 8 9 10 14 14 14 14 14 11 10 9 9 8 4 2 4
4 4 4 2 3 9 6 7 7 5 3 8 6 6 3 4 6 4 2 2 2 3 1 4 6 6 12 5 9 13 13 13 14 14 15 14 14 7 3 3 4 3 3 0 4
2 2 6 5 7 8 7 4 5 4 4 3 6 8 10 9 8 7 5 4 3 3 2 6 8 8 13 3 9 13 14 14 14 11 11 13 5 4 1 2 2 2 2 2 2
Wind_Direction
322 318 317 318 319 321 323 328 330 331 332 330 331 327 322 324 305 230 267 10 315 84 289 291 250 40 209 83 40 280 64 62 74 64 88 128 91 114 19 143 99 93 48 121 146
319 315 312 312 313 316 319 323 325 328 329 329 329 324 323 329 288 268 26 352 238 320 293 345 3 317 133 86 79 354 46 37 43 69 62 133 179 131 217 185 147 134 104 132 153
319 312 308 306 307 309 314 317 319 323 326 327 326 319 318 313 269 125 28 338 280 271 298 318 309 290 94 262 41 54 33 31 63 24 24 74 212 181 249 155 99 175 150 156 159
321 312 305 302 302 305 308 312 315 317 322 324 322 316 314 255 209 96 357 318 294 279 269 304 337 233 258 87 26 317 48 360 24 342 285 246 19 259 303 60 21 123 155 163 168
326 313 304 299 298 300 304 306 310 312 317 320 320 317 294 225 182 58 296 232 251 283 340 351 21 308 24 347 143 334 348 352 287 254 256 294 283 306 266 144 121 128 158 170 175
329 315 305 296 293 294 298 302 306 306 312 316 318 310 254 236 92 158 343 245 275 260 303 341 20 353 339 37 334 338 313 302 324 254 264 274 303 243 116 146 147 151 165 177 180
331 319 303 294 291 291 294 298 300 303 306 308 309 295 256 304 99 247 290 270 320 296 225 42 4 308 317 168 2 312 283 294 30 331 257 286 267 226 102 164 166 167 169 176 185
331 324 308 293 289 288 291 294 293 297 297 293 292 258 264 137 294 256 221 212 179 228 275 18 334 319 315 288 200 301 247 294 61 355 94 246 302 55 145 191 186 184 173 178 182
336 330 317 297 287 285 288 291 287 285 278 270 246 257 232 156 221 143 245 232 173 168 158 181 279 317 207 265 204 227 49 21 116 60 341 248 301 74 62 199 205 193 187 181 177
337 333 324 305 288 285 286 275 301 267 219 224 262 236 226 179 131 282 196 249 203 166 174 227 257 246 208 280 32 331 332 14 345 19 301 289 283 292 238 243 231 200 201 192 176
340 336 326 309 283 287 283 191 198 178 211 295 95 317 124 356 194 198 192 197 197 210 219 144 266 226 37 9 344 310 292 310 328 356 294 309 301 301 317 270 257 201 209 198 189
339 335 328 304 275 292 265 250 13 1 187 218 257 269 257 303 194 183 200 203 202 206 198 221 247 77 35 313 312 292 296 280 303 290 291 301 304 324 334 339 325 234 210 209 179
341 337 329 289 287 240 238 267 159 312 244 159 208 252 231 209 203 167 201 194 205 205 215 243 74 115 271 238 276 232 314 345 325 313 267 292 238 96 72 69 64 180 198 199 187
340 341 332 283 254 144 218 171 227 296 216 140 191 156 180 239 180 127 216 211 196 223 202 248 226 248 244 256 268 298 49 319 303 295 352 330 108 83 93 92 62 64 119 185 180
336 331 314 267 349 215 73 284 238 212 182 148 140 103 164 234 121 169 176 205 222 198 234 233 201 212 242 265 320 322 356 320 304 285 258 79 273 105 114 97 21 26 32 49 193
327 317 253 202 226 296 287 206 225 228 115 151 142 178 179 191 153 137 180 229 2 221 222 262 167 266 263 270 262 311 269 246 250 261 239 57 310 106 47 359 357 4 0 1 274
326 299 210 287 82 27 205 201 224 278 149 150 174 179 194 166 151 177 184 189 203 201 213 207 217 211 243 250 202 233 248 234 209 202 15 45 275 50 39 25 351 351 359 20 33
337 161 200 278 298 291 215 227 253 106 138 132 165 173 192 164 172 173 191 200 216 260 171 207 171 203 155 240 280 215 305 313 246 306 10 119 272 91 39 0 26 14 27 44 61
299 193 214 171 212 257 240 230 46 87 75 159 156 169 171 183 217 192 203 210 207 209 272 192 104 102 124 210 258 153 232 16 288 177 255 64 157 243 135 27 32 29 35 61 74
227 198 122 100 183 239 245 350 106 11 330 223 188 209 171 176 194 207 177 191 203 214 247 94 185 196 121 203 112 304 68 229 187 290 318 343 299 283 19 5 31 34 39 60 78
233 201 78 139 203 229 235 83 282 152 285 221 201 171 196 172 206 193 167 125 191 172 233 244 264 144 199 218 11 171 209 202 307 293 312 293 347 40 7 347 331 12 48 37 50
280 172 135 220 214 251 221 209 15 284 159 204 264 197 167 160 194 215 199 28 51 226 202 219 269 243 251 76 284 282 303 278 282 298 278 290 286 83 54 351 349 335 33 39 43
216 103 171 255 221 204 169 236 265 277 141 204 167 261 185 149 146 179 150 87 206 200 233 183 239 206 198 183 197 239 214 272 281 281 279 291 319 85 54 315 310 325 333 25 16
259 148 156 219 307 269 197 211 210 192 237 267 112 153 153 145 147 154 153 112 116 125 350 229 269 274 300 12 6 205 222 239 265 277 294 275 283 269 307 322 320 321 307 343 35
248 86 23 181 200 211 224 203 204 184 205 217 156 202 165 143 141 131 152 146 142 144 192 268 272 285 304 311 284 285 271 243 257 273 282 309 310 311 340 332 317 311 311 340 60
306 301 180 136 156 205 163 195 223 151 264 170 216 138 159 101 14 137 163 255 49 151 227 249 277 273 278 244 267 274 268 259 263 267 281 280 283 58 35 322 329 343 307 34 82
38 228 285 145 187 211 193 204 181 173 79 40 129 153 114 78 62 60 58 71 84 312 300 284 287 261 274 308 282 264 262 259 273 273 289 276 10 85 163 295 340 338 327 326 335